Home   Weather   Palma   Past weeks

Flag for Spain Past Weather in Palma, Majorca, Spain — Yesterday and Last 2 Weeks

Now
36 °F

Passing clouds.


Feels Like: 36 °F
Forecast: 37 / 58 °F
Wind: No wind

Location: Palma De Mallorca / Son San Juan

Current Time: Jan 25, 2017 at 2:39:56 am

Latest Report: Jan 25, 2017 at 2:00 am


Visibility: N/A

Pressure: 30.15 "Hg

Humidity: 100%

Dew Point: 36 °F

Location of PalmaLocation

Past Weather in Palma — Graph

°F

Palma Temperature Yesterday

Maximum temperature yesterday: 55 °F (at 12:00 pm)
Minimum temperature yesterday: 37 °F (at 11:30 pm)
Average temperature yesterday: 49 °F

High & Low Weather Summary for the Past Weeks

 TemperatureHumidityPressure
High63 °F (Jan 12, 1:00 pm)100% (Jan 10, 3:00 am)30.30 "Hg (Jan 10, 3:00 am)
Low32 °F (Jan 16, 5:00 am)39% (Jan 13, 1:30 pm)29.71 "Hg (Jan 21, 1:39 pm)
Average48 °F77%30.01 "Hg
* Reported Jan 10 1:00 am — Jan 25 1:30 am, Palma, Weather by CustomWeather, © 2017

Note: Actual official high and low records may vary slightly from our data, if they occured in-between our weather recording intervals... More about our weather records

Advertising

Palma Weather History for the Previous 24 Hours

Scroll right to see more
 ConditionsComfort  
Time TempWeatherWind HumidityBarometerVisibility
1:30 am
Wed, Jan 25
36 °FPassing clouds.No wind93%30.15 "HgN/A
1:00 am37 °FPassing clouds.1 mph93%30.15 "HgN/A
12:30 am37 °FPassing clouds.No wind93%30.15 "HgN/A
12:00 am37 °FPassing clouds.No wind93%30.15 "HgN/A
11:30 pm
Tue, Jan 24
37 °FPassing clouds.No wind100%30.15 "HgN/A
11:00 pm39 °FPassing clouds.No wind93%30.15 "HgN/A
10:30 pm41 °FPassing clouds.2 mph87%30.15 "HgN/A
10:00 pm41 °FPassing clouds.No wind87%30.15 "HgN/A
9:30 pm41 °FPassing clouds.3 mph87%30.15 "HgN/A
9:00 pm43 °FPassing clouds.No wind87%30.12 "HgN/A
8:30 pm45 °FPassing clouds.No wind87%30.12 "HgN/A
8:00 pm45 °FPassing clouds.2 mph87%30.12 "HgN/A
7:30 pm46 °FPassing clouds.No wind87%30.12 "HgN/A
7:00 pm48 °FPassing clouds.No wind71%30.12 "HgN/A
6:30 pm48 °FPassing clouds.No wind76%30.12 "HgN/A
6:00 pm52 °FPassing clouds.8 mph67%30.09 "HgN/A
5:30 pm54 °FPassing clouds.7 mph63%30.09 "HgN/A
5:00 pm54 °FPassing clouds.9 mph63%30.07 "HgN/A
4:30 pm54 °FPassing clouds.8 mph63%30.07 "HgN/A
4:00 pm54 °FPassing clouds.13 mph63%30.07 "HgN/A
3:30 pm54 °FPassing clouds.13 mph63%30.07 "HgN/A
3:00 pm54 °FPassing clouds.9 mph58%30.07 "HgN/A
2:30 pm54 °FPassing clouds.10 mph58%30.07 "HgN/A
2:00 pm55 °FPassing clouds.16 mph51%30.07 "HgN/A
1:30 pm55 °FPassing clouds.6 mph44%30.07 "HgN/A
1:00 pm55 °FPassing clouds.8 mph51%30.09 "HgN/A
12:30 pm55 °FPassing clouds.9 mph59%30.09 "HgN/A
12:00 pm55 °FScattered clouds.7 mph63%30.09 "HgN/A
11:30 am54 °FScattered clouds.6 mph63%30.09 "HgN/A
11:00 am52 °FScattered clouds.5 mph72%30.09 "HgN/A
10:30 am52 °FScattered clouds.5 mph67%30.07 "HgN/A
10:00 am52 °FScattered clouds.8 mph67%30.07 "HgN/A
9:30 am50 °FPassing clouds.10 mph71%30.04 "HgN/A
9:00 am52 °FPassing clouds.8 mph67%30.04 "HgN/A
8:30 am52 °FPassing clouds.6 mph62%30.04 "HgN/A
8:00 am50 °FPassing clouds.7 mph71%30.01 "HgN/A
7:30 am48 °FPassing clouds.2 mph76%30.01 "HgN/A
7:00 am48 °FPassing clouds.1 mph82%30.01 "HgN/A
6:30 am48 °FPassing clouds.3 mph87%30.01 "HgN/A
6:00 am48 °FPassing clouds.8 mph87%30.01 "HgN/A
5:30 am50 °FPassing clouds.10 mph82%30.01 "HgN/A
5:00 am48 °FPassing clouds.6 mph94%30.01 "HgN/A
4:30 am48 °FPassing clouds.7 mph94%30.01 "HgN/A
4:00 am48 °FPassing clouds.7 mph94%29.98 "HgN/A
3:30 am48 °FPassing clouds.8 mph94%29.98 "HgN/A
3:00 am48 °FPassing clouds.10 mph94%29.98 "HgN/A
2:30 am48 °FPassing clouds.5 mph94%29.98 "HgN/A
2:00 am48 °FPassing clouds.No wind94%29.98 "HgN/A
Weather by CustomWeather, © 2017

See weather overviewHow to use our weather pages